Wind_Speed
41 33 29 26 26 21 16 4 2 6 10 2 2 3 5 4 2 2 0 2 4 4 2 2 3 5 2 2 1 3 2 2 4 8 4 4 4 6 6 4 4 1 3 5
32 28 29 27 27 23 12 4 3 5 5 4 3 4 2 4 3 2 1 2 1 1 3 3 3 1 0 3 2 4 1 1 2 6 4 2 2 3 3 3 3 5 5 5
29 32 28 27 27 23 15 2 3 2 2 2 4 4 5 4 4 4 3 2 2 2 2 3 2 2 2 1 2 2 2 2 5 5 2 2 4 4 4 3 2 4 4 3
35 31 29 27 25 24 6 3 4 3 4 4 4 1 1 6 5 3 6 4 5 3 3 3 4 1 3 3 5 2 3 3 1 4 5 4 8 8 8 5 5 6 6 7
33 27 26 24 27 21 8 3 3 1 2 4 11 5 4 6 2 5 3 3 2 2 4 1 1 1 1 2 4 1 2 1 2 4 7 8 11 10 12 13 10 7 7 10
28 26 24 25 25 17 7 3 2 3 4 4 5 4 5 6 6 2 1 4 4 3 1 2 3 4 4 3 1 1 2 2 0 4 1 7 7 13 14 12 11 14 15 12
22 20 19 20 21 24 5 4 3 3 2 4 5 4 5 4 3 5 3 4 4 3 1 2 3 5 8 6 9 6 4 4 3 3 2 3 6 5 7 7 7 6 8 5
18 14 14 16 20 26 10 6 3 3 2 3 2 6 4 5 3 2 4 3 3 4 2 1 3 2 2 6 9 8 8 3 1 2 3 6 8 6 3 3 2 4 2 4
18 15 14 15 17 18 11 8 5 3 4 3 2 4 4 4 3 1 2 2 3 4 2 1 3 4 3 2 1 4 8 7 4 3 3 4 2 6 7 4 3 5 5 5
18 18 16 15 14 15 15 6 7 4 3 1 2 3 4 4 3 3 2 3 2 3 2 2 3 3 2 3 3 4 4 3 13 8 5 6 3 8 4 1 2 4 2 2
19 17 16 15 14 15 11 9 6 4 2 1 2 2 4 2 2 4 3 3 2 2 2 3 3 3 2 2 3 2 5 6 4 3 4 7 6 4 2 2 5 3 5 4
19 16 15 13 11 10 9 6 9 8 5 2 3 3 4 2 4 4 1 3 2 3 2 1 1 1 1 1 3 4 2 4 2 4 3 3 3 2 5 2 5 6 3 4
18 16 14 12 11 8 11 12 7 6 3 3 3 4 4 3 3 3 4 1 1 2 2 3 1 1 3 2 4 2 3 1 2 4 3 8 14 14 12 10 3 6 7 4
17 15 14 13 12 12 11 9 7 6 4 3 1 2 2 1 6 3 3 7 5 5 2 2 2 2 3 3 3 4 4 4 3 7 9 11 9 5 4 16 16 8 9 7
18 17 14 13 12 11 12 12 10 8 3 2 2 1 5 4 2 5 5 4 3 2 1 2 2 2 1 2 1 3 5 9 5 10 13 14 15 17 17 15 14 13 12 11
19 16 14 13 10 10 5 3 10 5 4 3 2 3 2 6 5 2 1 3 2 2 3 3 3 3 3 2 3 6 6 7 11 12 13 14 18 17 17 20 20 17 11 10
18 16 14 12 8 5 6 3 4 7 4 3 2 2 3 3 3 1 1 2 2 3 2 2 3 3 3 2 11 4 10 11 11 9 6 16 17 13 11 12 16 16 15 15
19 17 17 19 16 10 9 10 7 8 7 5 3 2 3 3 1 2 1 1 2 2 2 1 2 0 2 3 6 5 5 6 9 13 13 14 19 20 20 23 21 20 18 16
18 20 17 7 6 4 3 4 6 8 6 3 2 3 2 2 1 1 3 2 1 1 2 2 3 2 4 5 4 4 9 13 17 18 19 20 20 21 20 17 18 19 18 15
21 10 5 2 4 7 5 2 3 4 3 3 1 1 1 2 1 2 2 1 2 1 3 2 3 3 7 2 6 10 12 15 17 18 19 17 18 18 20 20 18 17 17 15
3 3 2 6 6 2 5 3 3 3 4 0 2 3 1 1 1 2 1 2 2 1 3 2 2 3 2 6 8 10 13 15 15 18 19 18 20 20 20 20 20 18 21 18
7 14 8 3 4 3 5 1 3 1 2 1 3 3 3 2 1 2 2 2 0 4 1 1 2 2 6 5 10 13 12 13 16 21 19 21 23 24 18 18 19 22 25 25
7 5 4 3 3 6 4 2 4 1 1 2 1 2 1 3 3 0 1 2 4 2 2 3 3 5 7 9 10 13 17 19 19 18 24 28 24 28 25 18 26 25 20 21
3 4 3 3 3 2 4 4 3 3 2 2 2 1 1 1 2 1 1 4 1 2 2 2 0 8 11 11 12 13 17 17 18 19 22 19 18 18 27 18 4 9 11 15
3 3 2 3 3 1 3 2 1 2 2 2 2 2 2 2 1 2 2 4 4 5 2 2 6 10 11 14 15 15 16 16 16 20 16 16 21 18 16 15 6 7 13 13
3 4 3 1 3 3 2 0 2 1 2 2 2 2 3 3 3 1 5 2 4 2 2 6 7 10 12 14 14 15 19 20 20 23 21 22 19 15 16 13 8 1 7 7
3 1 1 3 1 3 3 3 3 3 2 2 2 2 7 1 1 3 3 3 2 2 7 5 7 10 13 14 15 20 22 21 23 23 21 21 20 16 10 5 8 12 15 18
Wind_Direction
200 193 186 185 182 170 168 192 204 168 164 115 216 193 204 172 161 37 72 152 207 219 226 225 227 217 227 325 190 125 99 181 247 233 264 217 197 205 165 138 234 207 151 276
186 189 182 177 178 172 160 167 197 181 178 185 219 258 198 171 162 169 149 192 217 68 189 236 205 156 204 16 95 160 164 230 328 334 346 341 221 235 223 121 105 190 139 265
185 177 174 175 179 179 162 192 171 163 179 202 184 182 208 199 184 171 154 200 222 97 252 237 271 197 211 33 112 101 148 214 191 206 227 9 305 305 254 193 134 185 224 272
169 169 172 186 181 179 206 177 216 190 165 206 191 236 261 185 175 204 183 197 199 200 219 215 211 18 353 23 348 69 121 217 252 261 276 273 261 267 273 226 231 200 227 217
157 165 186 187 181 187 244 174 150 105 174 134 190 209 236 199 159 153 196 171 163 172 209 230 130 140 200 219 332 89 19 195 327 281 272 276 270 257 246 242 240 239 250 260
164 182 183 181 183 199 232 145 114 139 158 139 151 205 201 206 134 12 33 156 156 202 236 206 248 224 262 230 211 263 159 132 66 257 324 320 283 229 228 237 232 231 244 247
148 159 179 196 211 209 238 178 131 108 191 171 193 172 176 157 139 145 173 136 146 173 99 278 264 254 251 229 238 204 179 179 168 261 357 244 245 304 240 238 247 263 259 209
147 170 191 203 198 196 220 165 148 140 189 174 132 152 125 106 95 130 161 165 161 149 71 26 308 295 296 240 220 199 201 170 243 231 213 297 311 332 320 179 230 328 250 73
138 141 139 155 173 190 202 143 137 116 127 234 99 142 149 145 147 93 103 68 135 72 101 169 204 230 241 287 247 20 183 205 201 188 217 243 202 310 317 328 280 355 74 87
132 125 121 129 150 170 177 115 141 108 111 329 79 140 164 128 107 122 139 157 84 58 143 191 205 250 246 251 221 183 130 187 225 237 253 277 303 305 293 139 264 348 9 78
134 124 116 115 127 137 147 101 110 129 112 54 49 87 121 86 117 146 193 74 354 72 174 198 222 202 263 320 272 206 169 171 196 202 237 260 339 10 105 319 336 344 350 352
133 125 117 114 116 131 137 108 93 89 83 117 75 89 102 77 150 131 46 148 143 174 92 283 124 196 41 191 269 330 236 191 215 203 230 104 60 30 289 237 276 308 289 178
125 114 112 108 101 112 131 107 96 82 85 38 65 46 74 183 165 117 124 323 164 97 160 163 154 210 134 201 242 285 282 110 222 8 309 307 315 313 296 310 311 339 315 289
122 116 110 107 101 106 116 92 72 79 90 105 279 36 48 44 168 204 137 127 81 94 69 124 140 166 179 223 247 192 221 353 242 258 285 291 291 294 323 307 298 282 282 273
123 118 113 105 103 105 108 94 65 64 99 143 136 35 41 67 151 119 138 123 104 114 68 99 214 230 125 227 48 234 209 251 255 270 280 277 282 291 290 286 280 277 270 263
124 120 114 115 118 122 92 49 42 70 71 92 88 338 321 36 57 106 230 161 133 146 152 203 236 246 150 203 232 235 229 238 242 262 269 273 275 280 278 282 279 272 250 234
118 118 119 120 121 104 68 108 96 55 59 74 37 2 337 0 48 29 110 160 175 152 199 206 205 215 190 203 260 263 281 280 276 259 291 290 283 279 285 282 286 285 280 276
121 117 115 110 101 90 60 54 45 34 85 65 94 284 6 6 340 328 170 133 20 316 207 356 204 230 158 257 248 275 263 269 285 292 295 283 288 285 277 273 274 272 266 261
124 122 120 89 49 58 84 76 74 50 70 114 83 119 238 2 294 284 359 89 38 217 217 229 153 194 221 241 243 297 324 302 294 297 291 286 280 277 273 269 266 262 260 259
130 120 68 47 70 106 120 42 30 16 14 48 100 26 315 96 10 303 24 19 228 226 236 137 213 248 242 82 347 316 296 293 295 290 290 292 285 285 282 275 269 261 259 258
115 79 86 116 132 106 34 36 72 330 10 244 231 176 203 321 127 236 173 236 248 312 258 234 229 208 91 253 276 283 285 286 286 280 280 281 282 282 280 274 266 258 250 246
119 116 115 105 38 40 80 315 329 109 212 253 162 232 191 284 60 95 302 221 129 247 189 144 251 94 289 278 289 293 296 296 295 291 289 289 288 282 279 275 266 255 244 237
110 65 58 60 320 42 106 213 308 341 249 255 15 317 172 360 43 5 357 32 235 326 249 226 187 321 326 308 303 305 309 308 302 301 300 300 296 298 292 285 270 241 226 226
77 100 45 116 321 244 183 181 193 236 157 159 124 291 121 210 45 177 120 246 328 292 298 225 302 328 310 307 317 320 315 316 310 306 308 306 310 308 308 307 308 196 203 214
91 79 184 198 220 228 230 223 336 257 159 100 37 28 69 328 27 202 341 332 255 212 259 277 314 315 309 319 322 319 314 314 313 311 309 314 316 313 314 327 303 226 209 215
75 52 90 267 60 313 346 172 255 240 134 92 56 101 43 274 171 97 228 202 233 238 247 300 301 304 313 318 316 313 313 314 311 312 312 316 317 315 313 333 1 286 188 168
63 320 98 143 222 211 231 170 232 178 83 163 118 101 230 338 282 268 214 225 238 267 299 297 302 306 311 309 308 314 316 313 314 311 318 317 318 325 348 2 30 79 94 102
Height
769 777 782 789 794 798 805 807 813 808 809 820 820 820 805 797 798 796 797 798 799 800 799 797 796 796 794 797 795 796 802 808 812 802 790 789 789 789 791 817 815 833 834 799
769 775 780 784 789 793 798 801 806 805 808 818 817 806 800 797 798 799 800 799 800 801 801 799 797 796 800 797 798 800 800 807 822 805 798 790 788 788 787 794 805 810 832 795
766 773 778 781 786 791 797 800 801 805 804 807 806 802 800 798 797 800 800 801 802 802 805 802 801 799 799 798 799 796 799 807 806 818 798 797 794 788 786 789 816 798 797 780
761 767 774 779 784 789 794 792 795 789 795 800 803 801 799 796 800 799 799 800 800 801 814 808 804 806 804 803 802 802 803 808 807 802 801 798 797 795 789 792 792 795 783 786
755 764 772 777 782 790 792 787 789 792 795 792 795 801 802 798 799 800 800 802 804 803 805 803 804 812 807 803 809 806 807 808 812 815 803 801 799 792 785 782 781 784 782 781
752 762 770 776 781 787 785 782 783 785 789 794 797 796 798 795 796 807 802 801 809 808 807 807 811 813 814 813 812 812 811 813 816 817 801 805 802 786 778 770 766 767 773 771
754 765 772 775 779 784 784 783 784 789 791 791 790 789 791 793 798 803 807 808 810 811 810 811 813 815 815 815 814 812 813 815 817 815 806 821 783 777 774 772 768 769 769 769
761 766 771 774 776 780 784 781 783 788 796 787 790 791 793 796 798 802 804 804 806 808 810 814 812 811 806 803 805 811 810 812 821 821 814 798 779 774 770 770 772 777 769 772
763 768 769 773 775 779 782 780 783 785 791 793 787 792 795 802 806 806 806 806 807 810 816 815 823 813 802 800 799 806 809 808 809 812 810 802 780 781 777 769 783 779 776 776
766 767 770 771 774 777 781 782 782 785 795 792 790 794 799 801 806 810 808 808 809 812 820 816 818 818 805 807 801 807 815 814 804 805 798 796 785 784 775 784 794 783 780 778
766 768 770 773 776 777 779 782 782 784 790 791 791 792 796 802 805 807 810 813 815 820 825 817 813 816 817 816 810 804 809 814 813 807 806 804 789 782 783 797 789 786 785 783
768 770 771 774 777 778 780 782 783 785 786 792 792 794 794 799 799 804 810 810 813 814 829 826 823 815 828 828 823 811 810 809 810 807 797 795 795 795 794 796 792 787 784 783
769 771 774 777 779 780 779 781 783 785 790 794 795 798 798 799 799 802 807 810 810 814 815 823 826 832 825 836 826 813 809 809 810 805 797 794 790 790 791 788 790 788 786 783
771 774 777 780 781 780 781 784 786 787 791 800 801 801 799 799 799 802 803 806 809 812 817 825 830 829 819 831 818 821 813 811 810 808 801 797 793 791 790 788 787 787 785 784
773 776 780 781 782 783 784 786 789 790 794 799 801 801 801 801 800 801 804 806 810 818 828 834 828 819 820 820 819 820 809 805 811 802 797 795 791 786 783 783 782 782 781 779
775 778 780 783 786 787 787 791 792 793 793 800 810 805 804 801 800 802 805 809 812 815 820 823 816 812 816 828 820 798 799 798 797 795 791 789 783 780 777 774 772 772 771 770
776 780 783 785 787 789 791 795 796 794 795 803 818 809 804 804 804 805 807 808 809 812 814 812 812 811 809 822 801 795 794 792 790 788 787 782 778 773 769 768 764 764 763 763
779 783 785 788 790 792 795 797 797 797 798 803 829 820 813 806 811 813 806 810 813 812 810 810 809 808 810 812 794 791 789 787 785 783 781 775 770 768 763 761 757 753 751 750
782 785 788 791 793 797 800 800 800 800 804 816 819 824 829 807 809 810 810 812 823 810 811 805 804 804 807 790 790 788 785 784 779 775 772 767 762 755 751 749 746 743 739 740
784 788 791 798 800 801 803 803 804 805 808 810 818 815 818 812 811 813 815 815 811 819 802 800 800 794 785 786 786 785 783 780 776 771 762 756 751 746 741 737 734 730 728 729
786 791 798 801 802 802 807 821 821 825 826 814 813 814 816 809 818 816 810 823 817 815 805 796 794 785 792 789 787 783 778 774 769 764 757 751 744 736 729 724 720 717 716 716
788 791 798 802 806 816 824 845 827 823 817 813 816 817 814 813 810 816 814 814 809 820 805 804 792 788 787 787 783 776 771 766 761 755 748 740 731 723 715 709 704 701 701 702
790 793 805 811 825 830 837 841 840 833 820 818 818 820 817 814 816 821 814 827 814 795 800 794 792 785 784 782 776 769 764 759 753 745 737 728 719 711 703 692 684 683 688 691
797 811 818 829 842 836 826 824 821 812 812 814 816 818 817 821 821 824 819 807 804 809 818 790 784 783 780 776 770 765 757 752 745 737 728 719 711 702 693 683 678 679 682 686
805 810 817 824 815 821 820 819 815 809 809 812 817 819 818 824 825 823 814 818 810 804 787 787 782 780 776 770 765 760 753 746 739 731 722 714 707 699 690 683 680 680 681 683
804 810 816 813 817 821 819 819 816 808 808 810 815 829 837 828 826 819 822 812 801 787 790 784 782 778 773 767 762 756 750 743 735 728 719 712 705 698 691 685 681 679 679 681
808 811 804 810 808 811 813 812 811 806 810 814 822 829 821 829 822 819 802 792 789 791 785 782 780 776 769 764 758 752 745 739 731 723 717 710 704 697 692 688 685 684 683 685